Simultaneous Nadir Overpasses (SNOs) Predictions

Prediction of SNOs between METOP-A and NOAA-19 Satellite Orbit:

Table of predicted SNOs for the next 14.0 days since TLE Epoch: 7/13/2013
Index Date (METOP-A) Time (METOP-A) Lat,Lon (METOP-A) SZA (METOP-A ) Date (NOAA-19) Time (NOAA-19) Lat,Lon (NOAA-19) SZA (NOAA-19 ) Distance(km) Time Diff (sec)
1 07/18/2013 17:08:31 74.05, -82.59 53.20 07/18/2013 17:07:23 74.09, -85.13 53.37 77.67 68
2 07/18/2013 17:59:24 -73.51, 83.47 127.28 07/18/2013 17:58:18 -73.52, 83.51 127.26 1.04 66
3 07/18/2013 18:50:03 73.53,-109.15 52.75 07/18/2013 18:49:16 73.53,-109.26 52.76 3.54 47
4 07/18/2013 19:40:46 -73.50, 58.09 127.28 07/18/2013 19:40:22 -73.49, 58.04 127.28 1.61 24
5 07/18/2013 20:31:26 73.46,-134.65 52.70 07/18/2013 20:31:19 73.46,-134.61 52.69 1.38 7
6
